#timestamp,LO_Frequency,Hit,StdDev 
1579950015.6,286046999.5,N
1579950035.4,286046998.7,N
1579950055.3,286047000.4,N
1579950075.1,286047002.3,N
1579950076.0,286047002.3,N
1579950095.8,286047000.7,N
1579950115.7,286046996.6,N
1579950135.5,286046998.3,N
1579950155.3,286046999.7,N
1579950175.2,286047001.6,N
1579950195.0,286046999.7,N
1579950195.9,286046999.7,N
1579950215.8,286047002.1,N
1579950235.6,286047004.3,N
1579950255.4,286047002.7,N
1579950275.3,286047000.3,N
1579950295.1,286046998.9,N
1579950315.9,286046998.5,N
1579950335.7,286047000.5,N
1579950355.5,286046999.8,N
1579950375.5,286046998.8,N
1579950395.4,286046999.6,N
1579950415.2,286046999.3,N
1579950435.1,286046998.2,N
1579950436.0,286046998.2,N
1579950455.8,286047000.5,N
1579950475.6,286046999.3,N
1579950495.5,286047000.7,N
1579950515.3,286046996.8,N
1579950535.2,286046996.6,N
1579950555.9,286046999.3,N
1579950575.7,286046996.6,N
1579950595.6,286046999.4,N
1579950615.4,286047000.4,N
1579950635.2,286047002.5,N
1579950655.1,286047001.9,N
1579950656.0,286047001.9,N
1579950675.8,286047002.4,N
1579950695.7,286047002.6,N
1579950715.5,286046998.1,N
1579950735.3,286047000.8,N
1579950755.2,286047000.3,N
1579950775.0,286047003.0,N
1579950775.9,286047003.0,N
1579950795.7,286047004.2,N
1579950815.6,286047002.0,N
1579950835.4,286046999.9,N
1579950855.3,286047002.8,N
1579950875.1,286047000.5,N
1579950876.0,286047000.5,N
1579950895.8,286047000.0,N
1579950915.7,286047000.4,N
1579950935.5,286047000.7,N
1579950955.4,286046996.6,N
1579950975.2,286046997.7,N
1579950995.0,286046997.6,N
1579950995.9,286046997.6,N
1579951015.8,286046995.3,N
1579951035.6,286046999.8,N
1579951055.4,286047003.2,N
1579951075.3,286047021.4,Y
1579951095.1,286047019.8,P
1579951115.9,286047016.3,N
1579951135.7,286047015.5,N
1579951155.5,286047013.1,N
1579951175.4,286047011.2,N
1579951195.2,286047009.4,N
1579951215.0,286047010.7,N
1579951215.9,286047010.7,N
1579951235.8,286047006.2,N
1579951255.6,286047006.7,N
1579951275.5,286047005.5,N
1579951295.3,286047002.9,N
1579951315.1,286046999.9,N
1579951335.9,286046996.5,N
1579951355.7,286046993.8,N
1579951375.5,286046991.9,N
1579951395.4,286046991.5,N
1579951415.2,286046989.5,N
1579951435.1,286046989.8,N
1579951436.0,286046989.8,N
1579951455.8,286046989.8,N
1579951475.6,286046987.1,N
1579951495.5,286046989.4,N
1579951515.3,286046989.0,N
1579951535.1,286046990.8,N
1579951555.9,286046991.1,N
1579951575.7,286046991.3,N
1579951595.6,286046990.3,N
1579951615.4,286046992.8,N
1579951635.3,286046990.6,N
1579951655.1,286046991.3,N
1579951656.0,286046991.3,N
1579951675.8,286046991.2,N
1579951695.7,286046992.7,N
1579951715.5,286046994.8,N
1579951735.3,286046992.9,N
1579951755.2,286046990.1,N
1579951775.0,286046993.2,N
1579951775.9,286046993.2,N
1579951795.8,286046991.7,N
1579951815.6,286046992.5,N
1579951835.4,286046990.6,Y
1579951855.3,286047001.0,P
1579951875.1,286047000.6,N
1579951895.9,286046997.0,N
1579951915.7,286046999.1,N
1579951935.5,286046999.6,N
1579951955.4,286046999.3,N
1579951975.2,286046999.6,N
1579951995.0,286046995.8,N
1579951996.0,286046995.8,N
1579952015.8,286046995.5,N
1579952035.6,286046993.7,N
1579952055.5,286046998.0,N
1579952075.3,286046998.2,N
1579952095.1,286047000.4,N
1579952115.9,286047000.9,N
1579952135.7,286047000.9,N
1579952155.6,286046999.2,N
1579952175.4,286046998.1,N
1579952195.2,286046998.6,N
1579952215.1,286047000.8,N
1579952216.0,286047000.8,N
1579952235.8,286046998.1,N
1579952255.6,286047002.3,N
1579952275.5,286047000.0,N
1579952295.3,286047002.6,N
1579952315.2,286047003.9,N
1579952335.9,286047004.0,N
1579952355.7,286047001.8,N
1579952375.6,286047001.9,N
1579952395.4,286047003.8,N
1579952415.2,286047004.4,N
1579952435.1,286047005.5,N
1579952436.0,286047005.5,N
1579952455.8,286047003.6,N
1579952475.7,286047004.2,N
1579952495.5,286047001.8,N
1579952515.3,286047004.3,N
1579952535.2,286047004.3,N
1579952555.0,286047002.7,N
1579952555.9,286047002.7,N
1579952575.8,286047003.4,N
1579952595.6,286047003.7,N
1579952615.4,286047003.5,N
1579952635.3,286047004.2,N
1579952655.1,286047003.2,N
1579952675.8,286047003.1,N
1579952695.7,286047001.4,N
1579952715.5,286047005.5,N
1579952735.4,286047001.3,N
1579952755.2,286047002.3,N
1579952775.0,286047001.3,N
1579952775.9,286047001.3,N
1579952795.8,286047001.4,N
1579952815.6,286047006.0,Y
1579952835.5,286047002.6,P
1579952855.3,286047004.0,P
1579952875.1,286047002.3,P
1579952895.9,286047003.9,Y
1579952915.7,286047000.7,P
1579952935.6,286046999.6,N
1579952955.4,286046999.6,N
1579952975.2,286047001.2,N
1579952995.1,286047000.7,N
1579952996.0,286047000.7,N
1579953015.8,286046999.0,N
1579953035.6,286046999.4,N
1579953055.5,286046999.1,N
1579953075.3,286046996.8,N
1579953095.2,286046996.8,N
1579953115.9,286046997.0,N
1579953135.7,286046997.8,N
1579953155.6,286046997.7,N
1579953175.4,286046997.3,N
1579953195.3,286046996.8,N
1579953215.1,286046998.7,N
1579953235.8,286046999.1,N
1579953255.7,286046997.8,N
1579953275.5,286046996.1,N
1579953295.4,286047011.9,Y
1579953315.2,286046997.8,P
1579953335.0,286046999.4,N
1579953335.9,286046999.4,N
1579953355.8,286046999.2,N
1579953375.6,286046998.8,N
1579953395.5,286046997.3,Y
1579953415.3,286046998.7,P
1579953435.1,286046998.6,P
1579953455.9,286046998.4,P
1579953475.7,286046999.6,N
1579953495.6,286046999.4,N
1579953515.4,286046997.7,Y
1579953535.2,286046996.5,P
1579953555.1,286046999.5,N
1579953556.0,286046999.5,N
1579953575.8,286046997.5,N
1579953595.7,286046995.4,Y
